CW5018 Weather Reports


time (UTC)temp
C
wind
direction
speed
KPH
gust
KPH
rain 1hr
cm
rain 24hr
cm
rain mn
cm
humidity
%
barometer
mb
20260503192020 28 214 4.8 0.0 0.00 0.00 0.00 4 1009.5
20260503190535 27 192 4.8 0.0 0.00 0.00 0.00 5 1009.4
20260503185044 28 201 4.8 0.0 0.00 0.00 0.00 5 1009.7
20260503183518 27 194 4.8 0.0 0.00 0.00 0.00 7 1009.8
20260503182034 27 198 4.8 0.0 0.00 0.00 0.00 6 1009.8
20260503180522 26 254 4.8 0.0 0.00 0.00 0.00 10 1010.0
20260503175036 25 227 3.2 0.0 0.00 0.00 0.00 9 1010.3
20260503173531 25 157 1.6 0.0 0.00 0.00 0.00 11 1010.5
20260503172026 23 225 1.6 0.0 0.00 0.00 0.00 15 1010.6
20260503170541 21 220 0.0 0.0 0.00 0.00 0.00 17 1009.9
20260503150544 10 232 0.0 0.0 0.00 0.00 0.00 70 1010.6
20260503130521 5 232 0.0 0.0 0.00 0.00 0.00 66 1010.5
20260503110526 7 232 0.0 0.0 0.00 0.00 0.00 62 1010.4
20260503080542 10 232 0.0 0.0 0.00 0.00 0.00 54 1010.4
20260503072023 11 232 0.0 0.0 0.00 0.00 0.00 51 1011.1
20260503070518 11 232 0.0 0.0 0.00 0.00 0.00 50 1011.0
20260503055023 13 232 0.0 0.0 0.00 0.00 0.00 41 1011.0
20260503053538 13 232 0.0 0.0 0.00 0.00 0.00 39 1011.0
20260503052034 13 232 0.0 0.0 0.00 0.00 0.00 39 1011.0
20260503050520 13 232 0.0 0.0 0.00 0.00 0.00 38 1010.2
20260503045105 14 232 0.0 0.0 0.00 0.00 0.00 36 1009.9
20260503043531 15 232 0.0 0.0 0.00 0.00 0.00 32 1010.6
20260503042021 16 232 0.0 0.0 0.00 0.00 0.00 30 1010.3
20260503040557 17 232 0.0 0.0 0.00 0.00 0.00 28 1009.5
20260503035021 18 232 0.0 0.0 0.00 0.00 0.00 22 1009.3
20260503033557 20 229 0.0 0.0 0.00 0.00 0.00 19 1008.9
20260503032031 21 229 0.0 0.0 0.00 0.00 0.00 16 1009.6
20260503030526 22 230 0.0 0.0 0.00 0.00 0.00 12 1009.4
20260503025019 23 182 0.0 0.0 0.00 0.00 0.00 8 1009.3
20260503023530 23 178 1.6 0.0 0.00 0.00 0.00 8 1008.9
20260503022019 24 140 1.6 0.0 0.00 0.00 0.00 8 1008.9
20260503020533 24 156 1.6 0.0 0.00 0.00 0.00 7 1008.1
20260503015033 25 106 1.6 0.0 0.00 0.00 0.00 8 1008.8
20260503013524 25 138 3.2 0.0 0.00 0.00 0.00 7 1008.8
20260503012024 25 114 4.8 0.0 0.00 0.00 0.00 6 1008.8
20260503010542 26 153 3.2 0.0 0.00 0.00 0.00 6 1008.6
20260503005022 26 162 3.2 0.0 0.00 0.00 0.00 6 1008.6
20260503003520 26 146 3.2 0.0 0.00 0.00 0.00 5 1008.6
20260503002033 26 92 4.8 0.0 0.00 0.00 0.00 6 1008.6
20260503000534 27 107 3.2 0.0 0.00 0.00 0.00 5 1008.6
20260502235033 26 162 4.8 0.0 0.00 0.00 0.00 4 1008.6
20260502233528 26 140 6.4 0.0 0.00 0.00 0.00 5 1008.7
20260502232042 26 74 4.8 0.0 0.00 0.00 0.00 5 1008.9
20260502230540 27 194 3.2 0.0 0.00 0.00 0.00 5 1009.2
20260502225026 27 117 6.4 0.0 0.00 0.00 0.00 4 1009.4
20260502223520 26 114 3.2 0.0 0.00 0.00 0.00 6 1009.5
20260502222035 26 103 4.8 0.0 0.00 0.00 0.00 6 1009.7
20260502220521 25 213 6.4 0.0 0.00 0.00 0.00 7 1009.1
20260502215102 25 198 4.8 0.0 0.00 0.00 0.00 8 1009.0
20260502213530 25 244 4.8 0.0 0.00 0.00 0.00 10 1009.9
20260502212026 25 200 1.6 0.0 0.00 0.00 0.00 11 1010.2
20260502210521 24 224 1.6 0.0 0.00 0.00 0.00 11 1009.3
20260502205035 22 180 3.2 0.0 0.00 0.00 0.00 17 1009.4
20260502203529 23 67 1.6 0.0 0.00 0.00 0.00 12 1010.9
20260502202045 25 186 1.6 0.0 0.00 0.00 0.00 9 1011.1
20260502200530 25 205 3.2 0.0 0.00 0.00 0.00 10 1010.9
20260502195044 25 173 3.2 0.0 0.00 0.00 0.00 9 1010.6
20260502193520 25 246 4.8 0.0 0.00 0.00 0.00 10 1010.6